Provincetown, Massachusetts, United States (02657)
Lat: 42.06N, Lon: 70.18W
Wx Zone: MAZ022
Local Info
Past Weather Observations for Today

NOTE: This archive is for the closest National Weather Service station to Provincetown. Information may differ from the station used for current weather conditions.

Click here for Long-term Archive

Time Weather Temperature Dewpoint Humidity Pressure Winds Precip Visibility
18:06
Overcast
Light Rain
61°F / 16°C 59°F / 15°C 94% 29.98 in
(1015 mb)
N 12.7 mph
(N 20 kph)
0.00 in
(0.00 mm)
10SM
17:56
Overcast
Light Rain
61°F / 16°C 59°F / 15°C 94% 29.98 in
(1015 mb)
NNE 12.7 mph
(NNE 20 kph)
0.00 in
(0.00 mm)
10SM
16:56
Overcast
61°F / 16°C 59°F / 15°C 94% 29.98 in
(1015 mb)
N 10.4 mph
(N 17 kph)
- 10SM
15:56
Overcast
63°F / 17°C 61°F / 16°C 94% 29.95 in
(1014 mb)
NNE 6.9 mph
(NNE 11 kph)
0.00 in
(0.00 mm)
10SM
14:56
Overcast
Light Rain
63°F / 17°C 61°F / 16°C 94% 29.95 in
(1014 mb)
NE 10.4 mph
(NE 17 kph)
0.00 in
(0.00 mm)
10SM
13:56
Overcast
Light Rain
63°F / 17°C 61°F / 16°C 94% 29.98 in
(1015 mb)
N 12.7 mph
(N 20 kph)
0.01 in
(0.25 mm)
6SM
12:56
Overcast
Light Rain
63°F / 17°C 61°F / 16°C 94% 29.95 in
(1014 mb)
N 11.5 mph
(N 19 kph)
0.02 in
(0.51 mm)
6SM
11:56
Overcast
Light Rain
63°F / 17°C 61°F / 16°C 94% 29.98 in
(1015 mb)
NNE 9.2 mph
(NNE 15 kph)
0.01 in
(0.25 mm)
5SM
10:56
Overcast
Light Rain
61°F / 16°C 61°F / 16°C 100% 29.98 in
(1015 mb)
N 11.5 mph
(N 19 kph)
0.02 in
(0.51 mm)
1 3/4SM
09:56
Overcast
Light Rain
61°F / 16°C 59°F / 15°C 94% 30.01 in
(1016 mb)
N 9.2 mph
(N 15 kph)
0.00 in
(0.00 mm)
1 1/2SM
08:56
Overcast
Fog And Mist
61°F / 16°C 61°F / 16°C 100% 30.01 in
(1016 mb)
N 9.2 mph
(N 15 kph)
- 1 1/2SM
07:56
Overcast
Fog And Mist
61°F / 16°C 61°F / 16°C 100% 29.98 in
(1015 mb)
N 10.4 mph
(N 17 kph)
- 1 1/2SM
07:44
Overcast
Fog And Mist
61°F / 16°C 61°F / 16°C 100% 30.01 in
(1016 mb)
N 10.4 mph
(N 17 kph)
- 1SM
07:36
Overcast
Fog And Mist
61°F / 16°C 61°F / 16°C 100% 30.01 in
(1016 mb)
N 9.2 mph
(N 15 kph)
- 2SM
06:56
Overcast
Fog And Mist
63°F / 17°C 61°F / 16°C 94% 30.01 in
(1016 mb)
N 8.1 mph
(N 13 kph)
- 3SM
05:56
Overcast
Fog And Mist
61°F / 16°C 59°F / 15°C 94% 29.98 in
(1015 mb)
N 9.2 mph
(N 15 kph)
- 5SM
05:15
Overcast
Fog And Mist
63°F / 17°C 59°F / 15°C 88% 29.98 in
(1015 mb)
N 10.4 mph
(N 17 kph)
- 3SM
04:56
Overcast
63°F / 17°C 59°F / 15°C 88% 29.98 in
(1015 mb)
N 6.9 mph
(N 11 kph)
- 10SM
03:56
Overcast
63°F / 17°C 59°F / 15°C 88% 29.95 in
(1014 mb)
N 8.1 mph
(N 13 kph)
- 10SM
02:56
Overcast
61°F / 16°C 57°F / 14°C 88% 29.95 in
(1014 mb)
N 9.2 mph
(N 15 kph)
- 10SM
02:39
Overcast
61°F / 16°C 57°F / 14°C 88% 29.95 in
(1014 mb)
N 8.1 mph
(N 13 kph)
- 10SM
01:56
Overcast
63°F / 17°C 59°F / 15°C 88% 29.98 in
(1015 mb)
NNW 11.5 mph
(NNW 19 kph)
- 9SM
00:56
Overcast
63°F / 17°C 61°F / 16°C 94% 29.98 in
(1015 mb)
Variable 5.8 mph
(Variable 9 kph)
- 9SM
00:30
Overcast
Fog And Mist
63°F / 17°C 61°F / 16°C 94% 29.98 in
(1015 mb)
N 6.9 mph
(N 11 kph)
- 4SM
00:11
Overcast
Fog And Mist
63°F / 17°C 61°F / 16°C 94% 29.98 in
(1015 mb)
NNW 6.9 mph
(NNW 11 kph)
- 2SM
00:03
Overcast
Fog And Mist
63°F / 17°C 61°F / 16°C 94% 29.98 in
(1015 mb)
N 9.2 mph
(N 15 kph)
- 1 3/4SM
Time Weather Temperature Dewpoint Humidity Pressure Winds Precip Visibility


Weather for websites

WeatherForYou.com, LLC is not responsible for any damages or problems caused by this service. Current weather conditions are obtained from the closest station including government and personal stations which may have varying degrees of accuracy. Weather forecasts are derived from the NOAA NDFD. Like all things, this site belongs to Jesus Christ... He just trusts me to maintain it. If you have any questions or comments email webmaster@weatherforyou.com

Copyright © 2014, WeatherForYou.com LLC. All rights reserved.